TimeEST,TemperatureF,Dew PointF,Humidity,Sea Level PressureIn,VisibilityMPH,Wind Direction,Wind SpeedMPH,Gust SpeedMPH,PrecipitationIn,Events,Conditions,WindDirDegrees,DateUTC
12:52 AM,48.0,46.0,93,30.29,10.0,Calm,Calm,-,N/A,,Clear,0,2012-12-04 05:52:00
1:34 AM,46.4,44.6,93,30.29,0.8,Calm,Calm,-,N/A,,Mist,0,2012-12-04 06:34:00
1:41 AM,46.4,46.4,100,30.29,0.2,Calm,Calm,-,N/A,Fog,Fog,0,2012-12-04 06:41:00
1:52 AM,46.9,46.0,97,30.29,0.2,Calm,Calm,-,N/A,Fog,Fog,0,2012-12-04 06:52:00
2:05 AM,46.4,44.6,93,30.29,0.8,Calm,Calm,-,N/A,,Clear,0,2012-12-04 07:05:00
2:10 AM,46.4,44.6,93,30.29,3.0,Calm,Calm,-,N/A,,Clear,0,2012-12-04 07:10:00
2:18 AM,46.4,44.6,93,30.29,2.0,Calm,Calm,-,N/A,,Clear,0,2012-12-04 07:18:00
2:27 AM,46.4,46.4,100,30.29,1.2,Calm,Calm,-,N/A,,Clear,0,2012-12-04 07:27:00
2:33 AM,46.4,46.4,100,30.29,3.0,Calm,Calm,-,N/A,,Clear,0,2012-12-04 07:33:00
2:52 AM,46.0,44.1,93,30.29,10.0,Calm,Calm,-,N/A,,Clear,0,2012-12-04 07:52:00
3:02 AM,46.4,44.6,93,30.29,1.8,Calm,Calm,-,N/A,,Clear,0,2012-12-04 08:02:00
3:10 AM,46.4,44.6,93,30.29,2.0,Calm,Calm,-,N/A,,Scattered Clouds,0,2012-12-04 08:10:00
3:14 AM,44.6,44.6,100,30.29,8.0,Calm,Calm,-,N/A,,Mostly Cloudy,0,2012-12-04 08:14:00
3:46 AM,46.4,44.6,93,30.29,1.0,Calm,Calm,-,N/A,,Mist,0,2012-12-04 08:46:00
3:52 AM,46.0,45.0,96,30.29,0.8,Calm,Calm,-,N/A,,Mist,0,2012-12-04 08:52:00
3:57 AM,46.4,44.6,93,30.28,3.0,Calm,Calm,-,N/A,,Mostly Cloudy,0,2012-12-04 08:57:00
4:02 AM,46.4,44.6,93,30.28,1.5,Calm,Calm,-,N/A,,Mostly Cloudy,0,2012-12-04 09:02:00
4:09 AM,44.6,44.6,100,30.28,0.2,Calm,Calm,-,N/A,Fog,Fog,0,2012-12-04 09:09:00
4:52 AM,44.1,43.0,96,30.29,0.2,Calm,Calm,-,N/A,Fog,Fog,0,2012-12-04 09:52:00
5:52 AM,46.0,45.0,96,30.30,0.2,Calm,Calm,-,N/A,Fog,Fog,0,2012-12-04 10:52:00
6:27 AM,46.4,46.4,100,30.31,0.8,Calm,Calm,-,N/A,,Overcast,0,2012-12-04 11:27:00
6:35 AM,46.4,46.4,100,30.31,2.0,Calm,Calm,-,N/A,,Overcast,0,2012-12-04 11:35:00
6:43 AM,46.4,46.4,100,30.31,5.0,Calm,Calm,-,N/A,,Overcast,0,2012-12-04 11:43:00
6:52 AM,46.9,46.0,97,30.31,5.0,Calm,Calm,-,N/A,,Overcast,0,2012-12-04 11:52:00
7:03 AM,46.4,46.4,100,30.31,4.0,Calm,Calm,-,N/A,,Overcast,0,2012-12-04 12:03:00
7:39 AM,48.2,46.4,93,30.32,2.0,Calm,Calm,-,N/A,,Overcast,0,2012-12-04 12:39:00
7:52 AM,48.9,48.0,97,30.33,2.0,Calm,Calm,-,N/A,,Overcast,0,2012-12-04 12:52:00
8:20 AM,50.0,50.0,100,30.34,1.5,Calm,Calm,-,N/A,,Overcast,0,2012-12-04 13:20:00
8:52 AM,52.0,50.0,93,30.34,2.0,Calm,Calm,-,N/A,,Overcast,0,2012-12-04 13:52:00
9:00 AM,53.6,51.8,94,30.34,2.0,Calm,Calm,-,N/A,,Overcast,0,2012-12-04 14:00:00
9:12 AM,53.6,51.8,94,30.35,3.0,Calm,Calm,-,N/A,,Overcast,0,2012-12-04 14:12:00
9:52 AM,57.0,55.0,93,30.35,3.0,Calm,Calm,-,N/A,,Overcast,0,2012-12-04 14:52:00
10:52 AM,62.1,57.9,86,30.35,7.0,WSW,3.5,-,N/A,,Overcast,240,2012-12-04 15:52:00
11:52 AM,66.0,57.9,75,30.32,10.0,Variable,4.6,-,N/A,,Overcast,0,2012-12-04 16:52:00
12:52 PM,71.1,57.0,61,30.27,10.0,Variable,6.9,-,N/A,,Mostly Cloudy,0,2012-12-04 17:52:00
1:52 PM,71.1,55.9,59,30.25,10.0,West,8.1,-,N/A,,Scattered Clouds,280,2012-12-04 18:52:00
2:52 PM,71.1,55.0,57,30.23,10.0,SW,6.9,-,N/A,,Partly Cloudy,220,2012-12-04 19:52:00
3:52 PM,72.0,53.1,51,30.23,10.0,West,8.1,-,N/A,,Partly Cloudy,260,2012-12-04 20:52:00
4:52 PM,66.9,52.0,59,30.22,10.0,South,3.5,-,N/A,,Overcast,190,2012-12-04 21:52:00
5:52 PM,62.1,53.1,72,30.23,10.0,SW,3.5,-,N/A,,Mostly Cloudy,230,2012-12-04 22:52:00
6:52 PM,59.0,54.0,83,30.24,10.0,SW,4.6,-,N/A,,Clear,220,2012-12-04 23:52:00
7:52 PM,55.0,53.1,93,30.24,10.0,Calm,Calm,-,N/A,,Clear,0,2012-12-05 00:52:00
8:52 PM,55.0,51.1,86,30.24,10.0,Calm,Calm,-,N/A,,Clear,0,2012-12-05 01:52:00
9:52 PM,54.0,50.0,86,30.24,10.0,SW,3.5,-,N/A,,Clear,220,2012-12-05 02:52:00
10:52 PM,53.1,50.0,89,30.23,10.0,SSW,4.6,-,N/A,,Clear,210,2012-12-05 03:52:00
11:52 PM,51.1,50.0,96,30.22,10.0,SSW,4.6,-,N/A,,Partly Cloudy,200,2012-12-05 04:52:00